CW3439 Weather Reports


time (UTC)temp
C
wind
direction
speed
KPH
gust
KPH
rain 1hr
cm
rain 24hr
cm
rain mn
cm
humidity
%
barometer
mb
20260510060905 8 26 3.2 4.8 0.00 0.71 0.00 94 1010.5
20260510060404 8 26 1.6 4.8 0.00 0.71 0.00 94 1010.4
20260510055904 8 26 3.2 8.0 0.00 0.71 0.00 94 1010.4
20260510054905 8 25 3.2 8.0 0.00 0.71 0.00 94 1010.4
20260510054404 8 25 1.6 8.0 0.00 0.71 0.00 94 1010.3
20260510053904 9 26 3.2 8.0 0.00 0.71 0.00 95 1010.0
20260510053405 9 26 3.2 9.7 0.00 0.71 0.00 95 1010.1
20260510052905 9 26 3.2 9.7 0.00 0.71 0.00 95 1010.1
20260510052405 9 40 4.8 11.3 0.00 0.71 0.00 96 1010.0
20260510051905 9 16 6.4 14.5 0.00 0.71 0.00 96 1010.0
20260510051405 9 30 6.4 19.3 0.00 0.71 0.00 96 1009.8
20260510050405 9 350 11.3 20.9 0.00 0.71 0.00 96 1009.9
20260510045912 9 1 14.5 20.9 0.00 0.71 0.00 96 1009.7
20260510044912 9 328 11.3 19.3 0.00 0.71 0.00 96 1009.8
20260510043912 9 302 11.3 24.1 0.00 0.71 0.00 96 1009.5
20260510043412 9 320 11.3 19.3 0.00 0.71 0.00 96 1009.4
20260510042912 9 289 4.8 9.7 0.00 0.71 0.00 96 1009.0
20260510041912 9 289 3.2 8.0 0.00 0.71 0.00 96 1008.9
20260510041412 9 290 4.8 11.3 0.00 0.71 0.00 96 1008.8
20260510040912 9 291 4.8 19.3 0.00 0.71 0.00 96 1008.9
20260510035912 9 254 3.2 14.5 0.00 0.71 0.71 96 1009.1
20260510035412 9 239 1.6 8.0 0.00 0.71 0.71 96 1008.7
20260510034912 9 239 3.2 4.8 0.00 0.71 0.71 96 1008.5
20260510034412 9 239 3.2 8.0 0.00 0.71 0.71 96 1008.3
20260510033412 9 239 3.2 11.3 0.00 0.71 0.71 96 1008.1
20260510032912 9 266 4.8 8.0 0.00 0.71 0.71 95 1008.0
20260510032412 9 270 3.2 8.0 0.00 0.71 0.71 95 1008.0
20260510031912 9 270 3.2 4.8 0.00 0.71 0.71 95 1007.9
20260510031412 9 270 3.2 9.7 0.00 0.71 0.71 95 1007.8
20260510030412 9 251 3.2 9.7 0.00 0.71 0.71 95 1008.1
20260510025912 9 252 1.6 9.7 0.00 0.71 0.71 95 1008.2
20260510025411 10 252 4.8 9.7 0.00 0.71 0.71 95 1008.1
20260510024912 10 268 3.2 9.7 0.00 0.71 0.71 95 1008.0
20260510024412 10 267 3.2 9.7 0.00 0.71 0.71 95 1008.1
20260510023912 10 283 8.0 19.3 0.00 0.71 0.71 95 1008.3
20260510022912 10 318 14.5 25.7 0.00 0.71 0.71 95 1008.5
20260510022412 10 323 11.3 19.3 0.00 0.71 0.71 95 1008.5
20260510021912 10 287 11.3 19.3 0.00 0.71 0.71 95 1008.4
20260510021412 10 315 11.3 27.4 0.00 0.71 0.71 95 1008.2
20260510020912 10 255 9.7 27.4 0.00 0.71 0.71 95 1008.0
20260510020412 10 274 9.7 19.3 0.00 0.71 0.71 95 1007.7
20260510015911 10 264 14.5 33.8 0.00 0.71 0.71 95 1007.5
20260510014912 9 256 9.7 25.7 0.00 0.71 0.71 95 1007.2
20260510014412 9 236 11.3 27.4 0.00 0.71 0.71 95 1007.3
20260510013912 9 212 11.3 19.3 0.00 0.71 0.71 95 1007.2
20260510013412 9 239 9.7 20.9 0.00 0.71 0.71 95 1007.1
20260510012912 9 222 11.3 24.1 0.00 0.71 0.71 95 1007.0
20260510012412 9 221 12.9 24.1 0.00 0.71 0.71 95 1007.0
20260510011911 10 216 14.5 25.7 0.00 0.71 0.71 95 1006.9
20260510011411 10 239 11.3 20.9 0.00 0.71 0.71 95 1007.0
20260510010912 10 214 11.3 20.9 0.00 0.71 0.71 95 1006.9
20260510010412 10 228 11.3 25.7 0.00 0.71 0.71 95 1007.0
20260510005912 10 217 6.4 20.9 0.00 0.71 0.71 95 1006.8
20260510005411 10 214 9.7 25.7 0.00 0.71 0.71 94 1006.7
20260510004912 10 254 8.0 24.1 0.00 0.71 0.71 94 1006.8
20260510004412 10 219 8.0 25.7 0.00 0.71 0.71 94 1006.5
20260510003912 10 257 14.5 27.4 0.00 0.71 0.71 94 1006.5
20260510003411 10 251 9.7 24.1 0.00 0.71 0.71 94 1006.4
20260510002412 10 241 8.0 19.3 0.00 0.71 0.71 94 1006.2
20260510001911 10 217 8.0 16.1 0.00 0.71 0.71 94 1006.2
20260510001412 10 209 6.4 19.3 0.00 0.71 0.71 94 1006.1
20260510000912 10 210 9.7 16.1 0.00 0.71 0.71 94 1006.0
20260510000412 10 211 8.0 19.3 0.03 0.71 0.71 94 1006.1
20260509235912 10 223 6.4 14.5 0.03 0.71 0.71 95 1006.0
20260509235412 10 215 4.8 9.7 0.05 0.71 0.71 95 1006.0
20260509234912 10 204 6.4 14.5 0.10 0.71 0.71 95 1005.7
20260509234411 10 218 3.2 11.3 0.18 0.71 0.71 95 1005.8
20260509233411 11 229 3.2 11.3 0.30 0.71 0.71 95 1005.9
20260509232911 11 207 4.8 16.1 0.36 0.71 0.71 95 1005.7
20260509232411 11 227 3.2 25.7 0.43 0.71 0.71 95 1005.6
20260509231912 11 213 11.3 24.1 0.53 0.71 0.71 95 1005.7
20260509231411 11 235 8.0 19.3 0.61 0.71 0.71 95 1005.8
20260509230912 10 208 8.0 14.5 0.69 0.71 0.71 95 1005.8
20260509230412 10 208 6.4 14.5 0.69 0.69 0.69 94 1005.8
20260509225912 10 220 8.0 11.3 0.69 0.69 0.69 94 1006.0
20260509225412 10 263 8.0 33.8 0.66 0.66 0.66 94 1006.4
20260509224912 10 313 17.7 38.6 0.61 0.61 0.61 94 1007.0
20260509224412 10 322 22.5 37.0 0.51 0.51 0.51 94 1007.1
20260509223912 10 315 25.7 41.8 0.46 0.46 0.46 94 1007.3
20260509223412 10 309 35.4 57.9 0.41 0.41 0.41 93 1007.8
20260509222911 10 307 32.2 62.8 0.33 0.33 0.33 93 1007.7
20260509222411 11 323 40.2 61.2 0.28 0.28 0.28 92 1007.6
20260509221912 11 320 41.8 75.6 0.15 0.15 0.15 90 1007.6
20260509221412 12 312 53.1 78.9 0.08 0.08 0.08 90 1007.4
20260509220412 12 290 16.1 29.0 0.00 0.00 0.00 92 1005.7
20260509215911 12 289 11.3 24.1 0.00 0.00 0.00 91 1005.2
20260509215412 12 231 6.4 11.3 0.00 0.00 0.00 91 1004.7
20260509214911 12 259 6.4 14.5 0.00 0.00 0.00 90 1004.9
20260509214412 12 267 4.8 11.3 0.00 0.00 0.00 89 1004.8
20260509213911 12 201 8.0 14.5 0.00 0.00 0.00 89 1004.8
20260509212412 12 220 4.8 11.3 0.00 0.00 0.00 90 1004.7
20260509211912 12 219 8.0 14.5 0.00 0.00 0.00 89 1004.7
20260509211413 12 227 9.7 16.1 0.00 0.00 0.00 90 1004.9
20260509210912 12 225 8.0 11.3 0.00 0.00 0.00 90 1004.7
20260509210411 12 219 6.4 14.5 0.00 0.00 0.00 89 1004.7
20260509204912 13 209 8.0 11.3 0.00 0.00 0.00 87 1004.9
20260509204411 13 224 8.0 16.1 0.00 0.00 0.00 87 1005.0
20260509203412 13 219 9.7 19.3 0.00 0.00 0.00 86 1005.0
20260509202912 13 240 9.7 16.1 0.00 0.00 0.00 86 1005.1
20260509202411 13 206 8.0 16.1 0.00 0.00 0.00 85 1005.1
20260509201911 14 196 9.7 19.3 0.00 0.00 0.00 84 1005.3
20260509201412 14 233 9.7 16.1 0.00 0.00 0.00 85 1005.5
20260509200912 14 245 6.4 14.5 0.00 0.00 0.00 84 1005.7
20260509200411 15 235 11.3 16.1 0.00 0.00 0.00 84 1005.8
20260509195912 14 266 8.0 16.1 0.00 0.00 0.00 85 1005.9
20260509195411 14 241 8.0 19.3 0.00 0.00 0.00 85 1005.9
20260509194912 14 228 8.0 14.5 0.00 0.00 0.00 84 1006.0
20260509194411 14 224 9.7 19.3 0.00 0.00 0.00 84 1005.9
20260509193912 14 210 9.7 20.9 0.00 0.00 0.00 85 1005.9
20260509193412 13 266 8.0 14.5 0.00 0.00 0.00 86 1005.8
20260509192912 13 247 4.8 11.3 0.00 0.00 0.00 88 1005.8
20260509192411 13 226 4.8 9.7 0.00 0.00 0.00 87 1006.0
20260509191912 13 226 8.0 20.9 0.00 0.00 0.00 86 1005.9
20260509190911 14 215 11.3 20.9 0.00 0.00 0.00 84 1006.2
20260509190411 14 232 11.3 20.9 0.00 0.00 0.00 85 1006.1
20260509185911 13 251 9.7 19.3 0.00 0.00 0.00 87 1006.1
20260509185412 13 213 11.3 24.1 0.00 0.00 0.00 85 1006.2
20260509184912 14 219 14.5 25.7 0.00 0.00 0.00 83 1006.3
20260509184411 14 227 9.7 25.7 0.00 0.00 0.00 84 1006.5
20260509183911 14 239 16.1 27.4 0.00 0.00 0.00 85 1006.6
20260509183411 14 223 16.1 27.4 0.00 0.00 0.00 84 1006.6
20260509182911 14 216 12.9 25.7 0.00 0.00 0.00 84 1006.7
20260509182412 14 267 14.5 20.9 0.00 0.00 0.00 83 1006.6
20260509181411 15 230 9.7 29.0 0.00 0.00 0.00 83 1006.8
20260509180912 15 236 12.9 27.4 0.00 0.00 0.00 83 1006.9
20260509180411 15 220 17.7 25.7 0.00 0.00 0.00 82 1006.9
20260509175912 15 244 12.9 27.4 0.00 0.00 0.00 83 1007.0
20260509174912 15 216 9.7 19.3 0.00 0.00 0.00 84 1007.0
20260509174411 14 242 9.7 20.9 0.00 0.00 0.00 84 1007.1
20260509173912 14 201 11.3 19.3 0.00 0.00 0.00 85 1007.1
20260509172912 13 199 8.0 24.1 0.00 0.00 0.00 86 1007.2
20260509172411 13 190 8.0 20.9 0.00 0.00 0.00 86 1007.2
20260509171911 13 190 14.5 24.1 0.00 0.00 0.00 85 1007.3
20260509171412 14 211 11.3 24.1 0.00 0.00 0.00 85 1007.6
20260509170911 13 239 9.7 24.1 0.00 0.00 0.00 86 1007.8
20260509170411 13 211 9.7 19.3 0.00 0.00 0.00 86 1007.7
20260509165912 13 216 14.5 27.4 0.00 0.00 0.00 86 1007.8
20260509165411 13 210 9.7 24.1 0.00 0.00 0.00 87 1007.7
20260509164911 13 243 14.5 25.7 0.00 0.00 0.00 86 1007.8
20260509164412 13 251 9.7 24.1 0.00 0.00 0.00 88 1007.8
20260509163912 13 231 9.7 24.1 0.00 0.00 0.00 88 1007.7
20260509163412 12 197 11.3 25.7 0.00 0.00 0.00 88 1007.7
20260509162912 12 205 14.5 25.7 0.00 0.00 0.00 87 1007.7
20260509162411 13 193 9.7 19.3 0.00 0.00 0.00 87 1007.8
20260509161911 12 232 8.0 20.9 0.00 0.00 0.00 88 1007.9
20260509161411 12 250 12.9 24.1 0.00 0.00 0.00 88 1008.0
20260509160911 12 218 12.9 24.1 0.00 0.00 0.00 88 1008.0
20260509160411 12 205 11.3 25.7 0.00 0.00 0.00 88 1008.2
20260509155911 12 230 6.4 16.1 0.00 0.00 0.00 89 1008.2
20260509155412 12 239 9.7 20.9 0.00 0.00 0.00 88 1008.2
20260509153912 12 246 9.7 20.9 0.00 0.00 0.00 87 1008.2
20260509153412 12 251 6.4 16.1 0.00 0.00 0.00 86 1008.3
20260509152912 13 266 12.9 25.7 0.00 0.00 0.00 85 1008.3
20260509152411 13 217 11.3 20.9 0.00 0.00 0.00 84 1008.3
20260509151911 13 223 8.0 16.1 0.00 0.00 0.00 85 1008.3
20260509151411 13 216 6.4 19.3 0.00 0.00 0.00 85 1008.2
20260509150911 13 227 9.7 20.9 0.00 0.00 0.00 85 1008.3
20260509150411 13 235 8.0 16.1 0.00 0.00 0.00 86 1008.2
20260509145911 13 264 4.8 25.7 0.00 0.00 0.00 86 1008.2
20260509145411 13 231 8.0 19.3 0.00 0.00 0.00 87 1008.1
20260509144911 13 252 9.7 20.9 0.00 0.00 0.00 87 1008.2
20260509144412 13 243 14.5 24.1 0.00 0.00 0.00 87 1008.2
20260509143912 12 221 8.0 16.1 0.00 0.00 0.00 89 1008.1
20260509143412 12 204 12.9 20.9 0.00 0.00 0.00 88 1008.1
20260509142912 12 217 4.8 16.1 0.00 0.00 0.00 90 1008.1
20260509142411 12 238 8.0 16.1 0.00 0.00 0.00 90 1008.1
20260509141911 12 228 8.0 24.1 0.00 0.00 0.00 91 1008.1
20260509141412 12 218 4.8 16.1 0.00 0.00 0.00 91 1008.2
20260509140411 11 217 9.7 19.3 0.00 0.00 0.00 92 1008.2
20260509135911 11 229 9.7 14.5 0.00 0.00 0.00 92 1008.2
20260509135411 11 235 8.0 16.1 0.00 0.00 0.00 93 1008.1
20260509134911 11 228 6.4 14.5 0.00 0.00 0.00 93 1008.2
20260509134411 11 199 8.0 16.1 0.00 0.00 0.00 93 1008.3
20260509133911 11 231 9.7 16.1 0.00 0.00 0.00 94 1008.4
20260509133411 11 231 6.4 16.1 0.00 0.00 0.00 94 1008.4
20260509132911 10 245 6.4 16.1 0.00 0.00 0.00 94 1008.6
20260509132411 10 206 9.7 20.9 0.00 0.00 0.00 94 1008.6
20260509131912 10 215 6.4 19.3 0.00 0.00 0.00 94 1008.6
20260509130911 10 207 9.7 16.1 0.00 0.00 0.00 95 1008.6
20260509130411 10 208 4.8 14.5 0.00 0.00 0.00 95 1008.5
20260509125912 10 198 9.7 16.1 0.00 0.00 0.00 95 1008.5
20260509125412 10 187 9.7 20.9 0.00 0.00 0.00 95 1008.6
20260509123912 10 208 8.0 24.1 0.00 0.00 0.00 95 1008.7
20260509123411 10 211 8.0 16.1 0.00 0.00 0.00 96 1008.7
20260509122412 10 216 6.4 14.5 0.00 0.00 0.00 96 1008.7
20260509121911 10 231 4.8 11.3 0.00 0.00 0.00 96 1008.9
20260509120411 9 216 9.7 16.1 0.00 0.00 0.00 96 1008.8
20260509115911 9 221 9.7 16.1 0.00 0.00 0.00 96 1008.9
20260509115411 9 220 9.7 16.1 0.00 0.00 0.00 96 1008.8
20260509114911 9 227 9.7 16.1 0.00 0.00 0.00 96 1008.7
20260509114411 9 203 9.7 20.9 0.00 0.00 0.00 96 1008.7
20260509113912 9 217 4.8 11.3 0.00 0.00 0.00 96 1008.7
20260509112911 9 231 4.8 11.3 0.00 0.00 0.00 96 1008.7
20260509112411 9 220 6.4 11.3 0.00 0.00 0.00 96 1008.6
20260509111912 9 214 8.0 16.1 0.00 0.00 0.00 96 1008.7
20260509111412 9 228 8.0 11.3 0.00 0.00 0.00 96 1008.6
20260509110911 9 231 6.4 11.3 0.00 0.00 0.00 96 1008.6
20260509110412 9 207 6.4 11.3 0.00 0.00 0.00 96 1008.6
20260509105911 9 214 8.0 14.5 0.00 0.00 0.00 96 1008.7
20260509105411 9 211 4.8 14.5 0.00 0.00 0.00 96 1008.7
20260509104911 9 231 3.2 14.5 0.00 0.03 0.00 96 1008.6
20260509104411 9 232 6.4 14.5 0.00 0.03 0.00 96 1008.6
20260509103912 9 222 6.4 14.5 0.00 0.03 0.00 96 1008.8
20260509103411 8 224 3.2 9.7 0.00 0.03 0.00 96 1008.7
20260509102912 8 225 4.8 11.3 0.00 0.05 0.00 96 1008.8
20260509101412 8 233 3.2 8.0 0.00 0.10 0.00 95 1008.9
20260509100912 8 233 3.2 9.7 0.00 0.10 0.00 95 1008.9
20260509100411 8 231 3.2 9.7 0.00 0.10 0.00 95 1008.8
20260509095911 9 227 8.0 11.3 0.00 0.10 0.00 95 1008.8
20260509094911 8 220 6.4 9.7 0.00 0.10 0.00 95 1008.9
20260509094411 8 231 4.8 14.5 0.00 0.10 0.00 95 1008.8
20260509093411 8 221 4.8 14.5 0.00 0.13 0.00 95 1008.9
20260509092911 8 247 6.4 14.5 0.00 0.13 0.00 95 1008.9
20260509092411 8 220 6.4 14.5 0.00 0.13 0.00 95 1009.0
20260509091911 8 215 4.8 9.7 0.00 0.13 0.00 95 1009.1
20260509091411 8 214 3.2 9.7 0.00 0.13 0.00 95 1008.9
20260509090911 8 213 4.8 9.7 0.00 0.13 0.00 95 1008.9
20260509085911 8 249 3.2 9.7 0.00 0.13 0.00 95 1008.9
20260509085411 8 249 4.8 11.3 0.00 0.13 0.00 95 1009.0
20260509084911 8 258 4.8 9.7 0.00 0.13 0.00 94 1009.0
20260509084412 8 257 3.2 8.0 0.00 0.13 0.00 94 1009.1
20260509083911 8 231 3.2 8.0 0.00 0.13 0.00 94 1009.0
20260509083412 8 231 4.8 11.3 0.00 0.13 0.00 94 1009.0
20260509082911 8 211 4.8 19.3 0.00 0.13 0.00 94 1009.1
20260509082412 9 223 9.7 14.5 0.00 0.13 0.00 93 1009.1
20260509081911 9 260 3.2 8.0 0.00 0.13 0.00 93 1009.1
20260509081411 9 235 4.8 9.7 0.00 0.13 0.00 93 1009.1
20260509080911 9 226 6.4 11.3 0.00 0.13 0.00 93 1009.1
20260509075911 9 232 3.2 9.7 0.00 0.13 0.00 93 1009.1
20260509074411 9 211 4.8 11.3 0.00 0.13 0.00 92 1009.2
20260509073912 9 209 8.0 20.9 0.00 0.13 0.00 92 1009.2
20260509072911 9 220 8.0 20.9 0.00 0.13 0.00 92 1009.4
20260509072411 9 193 6.4 19.3 0.00 0.13 0.00 91 1009.4
20260509071911 9 178 1.6 9.7 0.00 0.13 0.00 91 1009.4
20260509071411 9 174 4.8 14.5 0.00 0.13 0.00 90 1009.6
20260509070912 9 203 8.0 14.5 0.00 0.13 0.00 90 1009.6
20260509070412 9 199 4.8 14.5 0.00 0.13 0.00 90 1009.6
20260509065911 9 201 6.4 20.9 0.00 0.13 0.00 89 1009.6
20260509065411 9 175 3.2 14.5 0.00 0.13 0.00 89 1009.7
20260509064911 9 160 4.8 14.5 0.00 0.13 0.00 88 1009.8
20260509064411 9 156 3.2 11.3 0.00 0.13 0.00 87 1009.8
20260509063912 9 154 1.6 11.3 0.00 0.13 0.00 87 1009.8
20260509062412 9 141 6.4 19.3 0.00 0.13 0.00 85 1009.9
20260509061911 9 156 3.2 11.3 0.00 0.13 0.00 85 1010.0
20260509061411 9 158 3.2 11.3 0.00 0.13 0.00 84 1010.1